Location: El Águila
(10.4167°N, 66.7167°W)
Time: 20:53:37
(UTC+00:00)

SWIFT - Pass Details

Date: 03 April 2023
Orbit: 527 x 541 km, 20.6° (Epoch: 30 May)

Event Time Altitude Azimuth Distance (km) Brightness Sun altitude
Rises 00:34:56 0° 278° (W) 2,640 7.0 -29.4°
Reaches altitude 10° 00:37:26 10° 291° (WNW) 1,753 5.8 -30.0°
Enters shadow 00:39:25 21° 315° (NW) 1,200 4.5 -30.4°
